Location: *
(2.5500°S, 65.9667°W)
Time: 12:44:34
(UTC+00:00)

Cosmos 2219 Rocket - Pass Details

Date: 26 October 2021
Orbit: 827 x 848 km, 71.0° (Epoch: 28 November)

Event Time Altitude Azimuth Distance (km) Brightness Sun altitude
Rises 22:28:55 0° 201° (SSW) 3,367 5.9 -4.6°
Reaches altitude 10° 22:31:22 10° 204° (SSW) 2,430 5.2 -5.2°
Maximum altitude 22:36:52 65° 285° (WNW) 906 2.7 -6.5°
Drops below altitude 10° 22:42:21 10° 6° (N) 2,418 4.4 -7.8°
Sets 22:44:48 0° 9° (N) 3,349 5.1 -8.4°
